This is the latest recevied weather packets stored in our database for station/object KJ4EWA. If no packets are shown the sender has not sent any weather packets the latest 10 day(s).
| Time | Temp. | Humidity | Pressure | Rain* | Wind** | Luminosity | Snow |
|---|---|---|---|---|---|---|---|
| 1777842109 | 26.67° C | 36% | 1020.9 hPa | 0 mm | - | 483 W/m² | - |
| 1777841804 | 27.22° C | 39% | 1021 hPa | 0 mm | - | 458 W/m² | - |
| 1777841501 | 27.22° C | 46% | 1020.7 hPa | 0 mm | - | 493 W/m² | - |
| 1777841198 | 26.11° C | 37% | 1021 hPa | 0 mm | - | 497 W/m² | - |
| 1777840896 | 27.22° C | 40% | 1021.1 hPa | 0 mm | - | 528 W/m² | - |
| 1777840592 | 27.22° C | 43% | 1021.3 hPa | 0 mm | - | 549 W/m² | - |
| 1777840290 | 26.67° C | 36% | 1021.3 hPa | 0 mm | - | 537 W/m² | - |
| 1777839987 | 27.22° C | 40% | 1021.3 hPa | 0 mm | - | 576 W/m² | - |
| 1777839685 | 27.78° C | 37% | 1021.1 hPa | 0 mm | - | 595 W/m² | - |
| 1777839383 | 27.78° C | 40% | 1021.2 hPa | 0 mm | - | 599 W/m² | - |
| 1777839080 | 27.22° C | 41% | 1021.5 hPa | 0 mm | - | 617 W/m² | - |
| 1777838776 | 25.56° C | 39% | 1021.6 hPa | 0 mm | - | 626 W/m² | - |
| 1777838473 | 26.67° C | 39% | 1021.4 hPa | 0 mm | - | 623 W/m² | - |
| 1777838170 | 27.22° C | 43% | 1021.6 hPa | 0 mm | - | 570 W/m² | - |
| 1777837866 | 26.11° C | 37% | 1021.8 hPa | 0 mm | - | 301 W/m² | - |
| 1777837563 | 26.11° C | 39% | 1021.7 hPa | 0 mm | - | 275 W/m² | - |
| 1777837258 | 26.67° C | 36% | 1021.8 hPa | 0 mm | - | 334 W/m² | - |
| 1777836955 | 26.67° C | 38% | 1022.1 hPa | 0 mm | - | 705 W/m² | - |
| 1777836651 | 26.67° C | 39% | 1022.2 hPa | 0 mm | - | 735 W/m² | - |
| 1777836347 | 26.67° C | 41% | 1022.3 hPa | 0 mm | - | 696 W/m² | - |
| 1777836043 | 26.67° C | 43% | 1022.5 hPa | 0 mm | - | 690 W/m² | - |
| 1777835739 | 26.11° C | 39% | 1022.5 hPa | 0 mm | - | 681 W/m² | - |
| 1777835436 | 26.67° C | 40% | 1022.9 hPa | 0 mm | - | 499 W/m² | - |
| 1777835133 | 25.56° C | 42% | 1023 hPa | 0 mm | - | 656 W/m² | - |
| 1777834830 | 25.56° C | 41% | 1022.8 hPa | 0 mm | - | 630 W/m² | - |
* Rain latest hour (hover to see other rain measurements)
** Current wind speed in m/s (hover to see current wind gust speed)